{"data":{"norad_id":60128,"epoch":"2026-05-25T01:29:08.177280Z","epoch_age_seconds":65606,"freshness":"FRESH","line1":"1 60128U 24118R   26145.06190020  .00002178  00000+0  81901-4 0  9999","line2":"2 60128  53.1611  31.6754 0001179  89.0875 271.0262 15.31714651107391","mean_motion":15.31714651,"eccentricity":0.0001179,"inclination_deg":53.1611,"raan_deg":31.6754,"arg_perigee_deg":89.0875,"mean_anomaly_deg":271.0262,"bstar":8.1901e-5,"rev_number":10739,"period_min":94.012288715779,"perigee_km":469.88884425651,"apogee_km":471.50379915377,"semimajor_km":6848.8333217051,"source":"CELESTRAK","updated_at":"2026-05-25T13:38:19.168667Z"}}